Location: Unspecified
(54.1780°N, 0.0000°E)
Time: 07:13:29
(UTC+00:00)

Vanguard 2 - Pass Details

Date: 21 June 2019
Orbit: 553 x 2938 km, 32.9° (Epoch: 18 July)

Event Time Altitude Azimuth Distance (km) Brightness Sun altitude
Rises 11:48:34 0° 243° (WSW) 4,118 11.4 59.2°
Reaches altitude 10° 11:52:02 10° 226° (SW) 3,516 11.3 59.2°
Maximum altitude 11:58:07 19° 185° (S) 3,424 11.7 59.3°
Drops below altitude 10° 12:06:08 10° 146° (SSE) 4,817 12.1 59.3°
Sets 12:12:11 0° 133° (SE) 6,239 12.4 59.2°
